Location: Saluda
(35.2377°N, 82.3468°W)
Time: 21:00:23
(UTC+00:00)

A-11 Canister half - Visible Passes

Search period start: 30 September 2022 00:00
Search period end: 10 October 2022 00:00
Orbit: 1515 x 1684 km, 47.2° (Epoch: 30 September)

Date Brightness Start Highest point End Pass type
(mag) Time Alt. Az. Time Alt. Az. Time Alt. Az.
30 Sep 9.6 00:35:14 10° S 00:43:29 32° SE 00:46:21 27° E visible
30 Sep 9.5 02:38:00 10° WSW 02:44:37 49° WSW 02:44:37 49° WSW visible
30 Sep11.505:05:22ENE05:05:22ENE04:42:54Wvisible
30 Sep 10.1 07:03:38 34° NE 07:03:38 34° NE 07:09:13 10° E visible
30 Sep 8.8 09:01:54 37° NW 09:06:14 89° NE 09:15:33 10° SE visible
01 Oct 9.8 00:12:35 10° S 00:20:37 29° SE 00:25:36 19° E visible
01 Oct 8.9 02:15:02 10° SW 02:23:52 76° WSW 02:23:52 76° WSW visible
01 Oct 11.1 04:21:39 10° W 04:22:08 12° W 04:22:08 12° W visible
01 Oct 10.5 06:42:49 23° ENE 06:42:49 23° ENE 06:46:10 10° E visible
01 Oct 8.8 08:41:06 58° NW 08:43:19 85° NE 08:52:37 10° SE visible
01 Oct 9.7 10:39:52 10° WNW 10:47:26 30° SW 10:55:05 10° S visible
01 Oct 9.9 23:49:58 10° S 23:57:45 27° SE 00:04:43 12° ENE visible
02 Oct 8.8 01:52:03 10° SW 02:01:54 88° SE 02:02:59 74° ENE visible
02 Oct 10.7 03:58:32 10° W 04:01:14 20° WNW 04:01:14 20° WNW visible
02 Oct 11.0 06:22:07 14° ENE 06:22:07 14° ENE 06:23:07 10° E visible
02 Oct 8.8 08:20:24 81° NE 08:20:24 81° NE 08:29:40 10° ESE visible
02 Oct 9.6 10:18:41 16° W 10:24:36 32° SW 10:32:28 10° S visible
02 Oct 10.0 23:27:23 10° S 23:34:53 25° SE 23:42:12 10° ENE visible
03 Oct 8.9 01:29:06 10° SW 01:38:58 84° SE 01:41:57 51° ENE visible
03 Oct 10.3 03:35:27 10° W 03:40:12 30° WNW 03:40:12 30° WNW visible
03 Oct 9.3 07:59:48 55° ESE 07:59:48 55° ESE 08:06:44 10° ESE visible
03 Oct 9.5 09:58:06 26° W 10:01:45 35° SW 10:09:48 10° S visible
04 Oct 8.9 01:06:10 10° SW 01:16:02 80° SE 01:20:48 35° ENE visible
04 Oct 9.9 03:12:21 10° W 03:19:02 40° NW 03:19:02 40° NW visible
04 Oct 10.0 07:39:15 33° ESE 07:39:15 33° ESE 07:43:46 10° ESE visible
04 Oct 9.3 09:37:32 36° WSW 09:38:54 37° SW 09:47:08 10° SSE visible
05 Oct 8.9 00:43:14 10° SW 00:53:06 76° SE 00:59:31 24° ENE visible
05 Oct 9.6 02:49:16 10° W 02:57:44 48° NW 02:57:44 48° NW visible
05 Oct 10.6 07:18:43 19° ESE 07:18:43 19° ESE 07:20:48 10° ESE visible
05 Oct 9.3 09:17:00 39° SW 09:17:00 39° SW 09:24:26 10° SSE visible
06 Oct 9.0 00:20:19 10° SW 00:30:11 72° SE 00:38:07 17° ENE visible
06 Oct 9.5 02:26:11 10° W 02:35:36 51° NNW 02:36:20 50° N visible
06 Oct 11.1 04:33:30 10° WNW 04:34:32 14° WNW 04:34:32 14° WNW visible
06 Oct 9.7 08:56:27 33° S 08:56:27 33° S 09:01:43 10° SSE visible
06 Oct 9.1 23:57:25 10° SW 00:07:15 68° SE 00:16:38 10° ENE visible
07 Oct 9.5 02:03:05 10° W 02:12:35 53° NNW 02:14:50 45° NNE visible
07 Oct 10.8 04:10:27 10° WNW 04:13:02 19° NW 04:13:02 19° NW visible
07 Oct 10.2 08:35:52 23° SSE 08:35:52 23° SSE 08:38:59 10° SSE visible
07 Oct 9.2 23:34:32 10° SW 23:44:20 64° SE 23:53:48 10° ENE visible
08 Oct 9.5 01:40:00 10° W 01:49:35 55° NNW 01:53:15 37° NNE visible
08 Oct 10.5 03:47:22 10° WNW 03:51:27 25° NW 03:51:27 25° NW visible
08 Oct 10.7 08:15:13 14° SSE 08:15:13 14° SSE 08:16:14 10° SSE visible
08 Oct 9.2 23:11:40 10° SSW 23:21:25 61° SE 23:30:52 10° ENE visible
09 Oct 9.4 01:16:55 10° WSW 01:26:35 57° NNW 01:31:37 30° NE visible
09 Oct 10.3 03:24:19 10° WNW 03:29:48 31° NW 03:29:48 31° NW visible
